Location: Burleson Alternative School
(32.5290°N, 97.3406°W)
Time: 19:17:42
(UTC+00:00)

JUGNU - Visible Passes

Search period start: 05 December 2024 00:00
Search period end: 15 December 2024 00:00
Orbit: 834 x 861 km, 20.0° (Epoch: 05 December)

Date Brightness Start Highest point End Pass type
(mag) Time Alt. Az. Time Alt. Az. Time Alt. Az.
05 Dec ? 11:03:11 10° S 11:05:14 12° SSE 11:07:17 10° SE visible
06 Dec ? 10:47:17 11° S 10:49:10 13° SSE 10:51:41 10° SE visible
06 Dec ? 12:33:08 10° SW 12:37:26 21° S 12:41:45 10° SE visible
07 Dec ? 10:32:40 14° S 10:33:06 14° SSE 10:35:59 10° SE visible
07 Dec ? 12:17:01 10° SW 12:21:22 22° S 12:25:45 10° SE visible
08 Dec ? 10:17:59 14° SSE 10:17:59 14° SSE 10:20:12 10° SE visible
08 Dec ? 12:00:54 10° SW 12:05:19 22° S 12:09:44 10° SE visible
09 Dec ? 10:03:15 13° SE 10:03:15 13° SE 10:04:22 10° SE visible
09 Dec ? 11:45:03 11° SW 11:49:16 23° S 11:53:42 10° SE visible
10 Dec ? 09:48:27 10° SE 09:48:27 10° SE 09:48:31 10° SE visible
10 Dec ? 11:30:15 16° SW 11:33:12 23° S 11:37:41 10° SE visible
11 Dec ? 11:15:25 20° SSW 11:17:08 23° S 11:21:38 10° SE visible
12 Dec ? 11:00:32 23° S 11:01:04 23° S 11:05:34 10° SE visible
12 Dec ? 12:45:26 10° SW 12:49:23 19° S 12:53:21 10° SSE visible
13 Dec ? 10:45:38 23° S 10:45:38 23° S 10:49:30 10° SE visible
13 Dec ? 12:29:31 10° SW 12:33:19 18° S 12:37:07 10° SSE visible
14 Dec ? 10:30:43 20° SSE 10:30:43 20° SSE 10:33:26 10° SE visible
14 Dec ? 12:13:36 10° SW 12:17:15 17° SSW 12:20:53 10° SSE visible
